Santa Ynez, CA

9:20 PM PDT on June 28, 2017 (GMT -0700)
Santa Ynez

Weather History for KIZA - December, 2012

Change the Weather History Date:

Thursday, December 6, 2012

  Actual Average (KSBA) Record (KSBA)
Temperature  
Mean Temperature 60 °F -  
Max Temperature 73 °F 65 °F 83 °F (1990)
Min Temperature 46 °F 41 °F 31 °F (2005)
Degree Days  
Heating Degree Days 6    
Growing Degree Days 10 (Base 50)    
Moisture  
Dew Point 51 °F    
Average Humidity 76    
Maximum Humidity 94    
Minimum Humidity 38    
Precipitation  
Precipitation 0.00 in - - ()
Sea Level Pressure  
Sea Level Pressure 29.98 in    
Wind  
Wind Speed 5 mph (NW)    
Max Wind Speed 14 mph    
Max Gust Speed 21 mph    
Visibility 10 miles    
Events      
Averages and records for this station are not official NWS values.
T = Trace of Precipitation, MM = Missing Value Source: NWS Daily Summary

Daily Weather History Graph

Daily Weather History Graph

Search for Another Location

Airport or City:

Trip Planner

Search our weather history database for the weather conditions in past years. The results will help you decide how hot, cold, wet, or windy it might be!

Date:

Astronomy

Dec. 06, 2012 Rise Set
Actual Time 6:53 AM PST 4:49 PM PST
Civil Twilight 6:25 AM PST 5:17 PM PST
Nautical Twilight 5:54 AM PST 5:48 PM PST
Astronomical Twilight 5:24 AM PST 6:19 PM PST
Moon No Moon Rise 12:03 PM PST (12/6)
Length of Visible Light 10h 51m
Length of Day
9h 55m
Waning Gibbous, 48% of the Moon is Illuminated
Dec 6
Waning Gibbous
Dec 13
New
Dec 19
First Quarter
Dec 28
Full
Jan 4
Last Quarter

Hourly Weather History & Observations

Time (PST) Temp. Windchill Dew Point Humidity Pressure Visibility Wind Dir Wind Speed Gust Speed Precip Events Conditions
12:15 AM 59.0 °F - 55.4 °F 88% 30.05 in 10.0 mi WSW 4.6 mph - N/A   Overcast
12:35 AM 59.0 °F - 55.4 °F 88% 30.03 in 10.0 mi West 4.6 mph - N/A   Overcast
12:55 AM 59.0 °F - 55.4 °F 88% 30.03 in 10.0 mi Calm Calm - N/A   Overcast
1:15 AM 59.0 °F - 57.2 °F 94% 30.03 in 10.0 mi West 5.8 mph - N/A   Overcast
1:35 AM 59.0 °F - 55.4 °F 88% 30.02 in 10.0 mi WNW 4.6 mph - N/A   Overcast
1:55 AM 59.0 °F - 55.4 °F 88% 30.01 in 10.0 mi WNW 6.9 mph - N/A   Overcast
2:15 AM 57.2 °F - 55.4 °F 94% 30.01 in 10.0 mi WNW 3.5 mph - N/A   Overcast
2:35 AM 57.2 °F - 55.4 °F 94% 30.01 in 10.0 mi Calm Calm - N/A   Overcast
2:55 AM 57.2 °F - 55.4 °F 94% 30.01 in 10.0 mi NW 3.5 mph - N/A   Overcast
3:15 AM 57.2 °F - 55.4 °F 94% 30.01 in 10.0 mi NW 3.5 mph - N/A   Overcast
3:35 AM 57.2 °F - 55.4 °F 94% 30.00 in 10.0 mi NNW 3.5 mph - N/A   Overcast
3:55 AM 59.0 °F - 55.4 °F 88% 30.00 in 10.0 mi NNW 6.9 mph - N/A   Overcast
4:15 AM 57.2 °F - 53.6 °F 88% 30.00 in 10.0 mi NW 5.8 mph - N/A   Overcast
4:35 AM 57.2 °F - 53.6 °F 88% 29.99 in 10.0 mi Calm Calm - N/A   Overcast
4:55 AM 57.2 °F - 53.6 °F 88% 29.99 in 10.0 mi Calm Calm - N/A   Mostly Cloudy
5:15 AM 53.6 °F - 51.8 °F 94% 29.99 in 4.0 mi Calm Calm - N/A   Scattered Clouds
5:35 AM 53.6 °F - 51.8 °F 94% 30.00 in 7.0 mi Calm Calm - N/A   Clear
5:55 AM 51.8 °F - 50.0 °F 94% 30.00 in 7.0 mi Calm Calm - N/A   Scattered Clouds
6:15 AM 53.6 °F - 51.8 °F 94% 30.00 in 10.0 mi Calm Calm - N/A   Mostly Cloudy
6:35 AM 53.6 °F - 51.8 °F 94% 30.00 in 10.0 mi North 3.5 mph - N/A   Scattered Clouds
6:55 AM 53.6 °F - 51.8 °F 94% 30.00 in 10.0 mi Calm Calm - N/A   Clear
7:15 AM 53.6 °F - 50.0 °F 88% 30.01 in 10.0 mi Calm Calm - N/A   Clear
7:35 AM 53.6 °F - 51.8 °F 94% 30.00 in 10.0 mi Calm Calm - N/A   Clear
7:55 AM 55.4 °F - 53.6 °F 94% 30.01 in 10.0 mi Calm Calm - N/A   Clear
8:15 AM 57.2 °F - 53.6 °F 88% 30.01 in 10.0 mi WSW 3.5 mph - N/A   Clear
8:35 AM 59.0 °F - 51.8 °F 77% 30.02 in 10.0 mi SW 4.6 mph - N/A   Clear
8:55 AM 59.0 °F - 51.8 °F 77% 30.02 in 10.0 mi Calm Calm - N/A   Clear
9:15 AM 60.8 °F - 51.8 °F 72% 30.02 in 10.0 mi WSW 3.5 mph - N/A   Clear
9:35 AM 60.8 °F - 53.6 °F 77% 30.02 in 10.0 mi SW 3.5 mph - N/A   Clear
9:55 AM 62.6 °F - 53.6 °F 72% 30.02 in 10.0 mi South 5.8 mph - N/A   Clear
10:15 AM 64.4 °F - 53.6 °F 68% 30.02 in 10.0 mi South 5.8 mph - N/A   Clear
10:35 AM 66.2 °F - 51.8 °F 60% 30.01 in 10.0 mi Calm Calm - N/A   Clear
10:55 AM 68.0 °F - 53.6 °F 60% 30.00 in 10.0 mi Calm Calm - N/A   Clear
11:15 AM 69.8 °F - 51.8 °F 53% 29.99 in 10.0 mi WNW 9.2 mph - N/A   Clear
11:35 AM 71.6 °F - 51.8 °F 50% 29.98 in 10.0 mi NW 10.4 mph - N/A   Clear
11:55 AM 71.6 °F - 46.4 °F 41% 29.96 in 10.0 mi North 10.4 mph - N/A   Clear
12:15 PM 73.4 °F - 46.4 °F 38% 29.96 in 10.0 mi NNW 11.5 mph 18.4 mph N/A   Clear
12:35 PM 73.4 °F - 46.4 °F 38% 29.95 in 10.0 mi North 11.5 mph - N/A   Clear
12:55 PM 71.6 °F - 46.4 °F 41% 29.94 in 10.0 mi NNW 11.5 mph - N/A   Clear
1:15 PM 71.6 °F - 50.0 °F 46% 29.93 in 10.0 mi North 9.2 mph 20.7 mph N/A   Clear
1:35 PM 71.6 °F - 46.4 °F 41% 29.92 in 10.0 mi NNE 13.8 mph - N/A   Clear
1:55 PM 71.6 °F - 48.2 °F 43% 29.93 in 10.0 mi North 11.5 mph 18.4 mph N/A   Clear
2:15 PM 71.6 °F - 46.4 °F 41% 29.92 in 10.0 mi NNE 13.8 mph 18.4 mph N/A   Clear
2:35 PM 71.6 °F - 46.4 °F 41% 29.92 in 10.0 mi NNE 11.5 mph - N/A   Clear
2:55 PM 71.6 °F - 48.2 °F 43% 29.92 in 10.0 mi NNE 10.4 mph 16.1 mph N/A   Clear
3:15 PM 69.8 °F - 46.4 °F 43% 29.92 in 10.0 mi NNE 11.5 mph - N/A   Clear
3:35 PM 69.8 °F - 46.4 °F 43% 29.92 in 10.0 mi North 11.5 mph - N/A   Clear
3:55 PM 69.8 °F - 46.4 °F 43% 29.92 in 10.0 mi North 11.5 mph - N/A   Clear
4:15 PM 68.0 °F - 46.4 °F 46% 29.92 in 10.0 mi North 10.4 mph - N/A   Clear
4:35 PM 66.2 °F - 48.2 °F 52% 29.93 in 10.0 mi NW 12.7 mph - N/A   Clear
4:55 PM 62.6 °F - 51.8 °F 68% 29.93 in 10.0 mi NW 11.5 mph - N/A   Clear
5:15 PM 60.8 °F - 51.8 °F 72% 29.94 in 10.0 mi NNW 10.4 mph - N/A   Clear
5:35 PM 59.0 °F - 51.8 °F 77% 29.94 in 10.0 mi NNW 12.7 mph - N/A   Clear
5:55 PM 59.0 °F - 51.8 °F 77% 29.94 in 10.0 mi NW 11.5 mph 19.6 mph N/A   Clear
6:15 PM 57.2 °F - 50.0 °F 77% 29.95 in 10.0 mi NW 9.2 mph - N/A   Clear
6:35 PM 55.4 °F - 50.0 °F 82% 29.95 in 10.0 mi WNW 6.9 mph - N/A   Clear
6:55 PM 55.4 °F - 50.0 °F 82% 29.95 in 10.0 mi NW 11.5 mph - N/A   Clear
7:15 PM 55.4 °F - 50.0 °F 82% 29.97 in 10.0 mi West 5.8 mph - N/A   Clear
7:35 PM 55.4 °F - 50.0 °F 82% 29.97 in 10.0 mi Calm Calm - N/A   Clear
7:55 PM 53.6 °F - 50.0 °F 88% 29.98 in 10.0 mi Calm Calm - N/A   Clear
8:15 PM 53.6 °F - 50.0 °F 88% 29.97 in 10.0 mi Calm Calm - N/A   Clear
8:35 PM 51.8 °F - 50.0 °F 94% 29.97 in 10.0 mi West 4.6 mph - N/A   Clear
8:55 PM 51.8 °F - 48.2 °F 88% 29.97 in 10.0 mi SSW 3.5 mph - N/A   Clear
9:15 PM 51.8 °F - 48.2 °F 88% 29.98 in 10.0 mi Calm Calm - N/A   Clear
9:35 PM 51.8 °F - 46.4 °F 82% 29.98 in 10.0 mi Calm Calm - N/A   Clear
9:55 PM 50.0 °F - 48.2 °F 94% 29.98 in 10.0 mi ENE 5.8 mph - N/A   Clear
10:15 PM 50.0 °F - 46.4 °F 87% 29.99 in 10.0 mi ENE 3.5 mph - N/A   Clear
10:35 PM 50.0 °F - 46.4 °F 87% 29.99 in 10.0 mi Calm Calm - N/A   Clear
10:55 PM 48.2 °F - 46.4 °F 93% 29.99 in 10.0 mi Calm Calm - N/A   Clear
11:15 PM 50.0 °F - 46.4 °F 87% 29.98 in 10.0 mi Calm Calm - N/A   Clear
11:35 PM 46.4 °F 44.3 °F 44.6 °F 93% 29.98 in 10.0 mi East 4.6 mph - N/A   Clear
11:55 PM 46.4 °F 44.3 °F 44.6 °F 93% 29.97 in 10.0 mi ESE 4.6 mph - N/A   Clear